New Orleans Lakefront, LA

12:19 PM CST on November 12, 2019 (GMT -0600)
Lakefront

Weather History for KNEW - September, 2019

Change the Weather History Date:

Wednesday, September 11, 2019

  Actual Average Record
Temperature  
Mean Temperature 86 °F 81 °F  
Max Temperature 95 °F 89 °F 98 °F (1980)
Min Temperature 76 °F 73 °F 57 °F (1969)
Degree Days  
Heating Degree Days 0 0  
Month to date heating degree days 0 0  
Since 1 July heating degree days 0 0  
Cooling Degree Days 21 16  
Month to date cooling degree days 247 184  
Year to date cooling degree days 2888 2430  
Growing Degree Days 36 (Base 50)    
Moisture  
Dew Point 73 °F    
Average Humidity 70    
Maximum Humidity 91    
Minimum Humidity 49    
Precipitation  
Precipitation 0.02 in 0.19 in 5.64 in (1998)
Month to date precipitation 0.02 2.10  
Year to date precipitation 46.78 46.31  
Snow  
Snow 0.00 in - - ()
Month to date snowfall 0.0  
Since 1 July snowfall 0.0  
Since 1 September snowfall 0.0  
Snow Depth 0.00 in    
Sea Level Pressure  
Sea Level Pressure 30.11 in    
Wind  
Wind Speed 5 mph (ESE)    
Max Wind Speed 20 mph    
Max Gust Speed 25 mph    
Visibility 10 miles    
Events      
T = Trace of Precipitation, MM = Missing Value Source: NWS Daily Summary

Daily Weather History Graph

Daily Weather History Graph

Search for Another Location

Airport or City:

Astronomy

Sep. 11, 2019 Rise Set
Actual Time 6:42 AM CDT 7:10 PM CDT
Civil Twilight 6:18 AM CDT 7:34 PM CDT
Nautical Twilight 5:50 AM CDT 8:02 PM CDT
Astronomical Twilight 5:21 AM CDT 8:31 PM CDT
Moon 6:09 PM CDT (9/11) 4:20 AM CDT (9/11)
Length of Visible Light 13h 16m
Length of Day
12h 28m
Waxing Gibbous, 95% of the Moon is Illuminated
Sep 11
Waxing Gibbous
Sep 13
Full
Sep 21
Last Quarter
Sep 28
New
Oct 5
First Quarter

Hourly Weather History & Observations

Time (CDT) Temp. Heat Index Dew Point Humidity Pressure Visibility Wind Dir Wind Speed Gust Speed Precip Events Conditions
12:53 AM 81.0 °F 86.2 °F 73.9 °F 79% 30.12 in 10.0 mi SSE 3.5 mph - N/A   Clear
1:53 AM 81.0 °F 86.2 °F 73.9 °F 79% 30.12 in 10.0 mi SE 3.5 mph - N/A   Clear
2:53 AM 82.0 °F 88.6 °F 75.0 °F 79% 30.10 in 10.0 mi SE 3.5 mph - N/A   Clear
3:53 AM 82.0 °F 89.4 °F 75.9 °F 82% 30.10 in 10.0 mi SE 4.6 mph - N/A   Clear
4:53 AM 80.1 °F 85.1 °F 75.0 °F 85% 30.10 in 9.0 mi SE 4.6 mph - N/A   Clear
5:53 AM 82.0 °F 89.4 °F 75.9 °F 82% 30.12 in 10.0 mi ESE 5.8 mph - N/A   Partly Cloudy
6:53 AM 82.0 °F 89.4 °F 75.9 °F 82% 30.13 in 8.0 mi ESE 4.6 mph - N/A   Clear
7:53 AM 84.0 °F 93.7 °F 77.0 °F 79% 30.14 in 8.0 mi East 8.1 mph - N/A   Clear
8:53 AM 86.0 °F 93.8 °F 73.9 °F 67% 30.16 in 10.0 mi ESE 10.4 mph - N/A   Partly Cloudy
9:53 AM 88.0 °F 95.6 °F 73.0 °F 61% 30.17 in 10.0 mi ESE 11.5 mph - N/A   Partly Cloudy
10:53 AM 89.1 °F 97.0 °F 73.0 °F 59% 30.16 in 10.0 mi East 9.2 mph - N/A   Scattered Clouds
11:53 AM 90.0 °F 96.4 °F 71.1 °F 54% 30.15 in 10.0 mi East 12.7 mph - N/A   Partly Cloudy
12:53 PM 91.9 °F 99.5 °F 72.0 °F 52% 30.14 in 10.0 mi East 12.7 mph - N/A   Partly Cloudy
1:53 PM 91.9 °F 99.5 °F 72.0 °F 52% 30.12 in 10.0 mi East 13.8 mph - N/A   Partly Cloudy
2:53 PM 91.0 °F 97.6 °F 71.1 °F 52% 30.09 in 10.0 mi ESE 12.7 mph - N/A   Clear
3:53 PM 91.0 °F 96.6 °F 70.0 °F 50% 30.08 in 10.0 mi East 10.4 mph - N/A   Partly Cloudy
4:53 PM 91.0 °F 99.3 °F 73.0 °F 55% 30.06 in 10.0 mi East 13.8 mph - N/A   Clear
5:53 PM 89.1 °F 95.0 °F 71.1 °F 55% 30.06 in 10.0 mi ESE 13.8 mph - N/A   Clear
6:53 PM 87.1 °F 95.4 °F 73.9 °F 65% 30.05 in 9.0 mi East 12.7 mph - N/A   Clear
7:53 PM 86.0 °F 93.0 °F 73.0 °F 65% 30.07 in 10.0 mi SE 5.8 mph - N/A   Clear
8:53 PM 84.0 °F 91.2 °F 73.9 °F 72% 30.09 in 10.0 mi SE 6.9 mph - N/A   Clear
9:53 PM 84.0 °F 91.2 °F 73.9 °F 72% 30.10 in 10.0 mi ESE 5.8 mph - N/A   Clear
10:53 PM 82.9 °F 88.8 °F 73.0 °F 72% 30.09 in 10.0 mi SE 6.9 mph - N/A   Clear
11:53 PM 82.9 °F 88.8 °F 73.0 °F 72% 30.07 in 10.0 mi ESE 6.9 mph - N/A   Clear